This demonstration page uses our WeatherBlox Daily Observations layout. Learn more.

Left ArrowRight Arrow

38.20091, -84.87328

Hourly Observations for February 6, 2018

Temp ( °F °C ) Dew Point ( °F °C ) Humidity (%) Winds ( mph kmh ) Pressure ( in mb ) Visibility ( mi km ) Precip ( " mm )
12:53 am 00:53 Cloudy 27 -2.8 20 -6.7 75 75 NW 5 7 30.19 1022 10 16 0.00 0.00
1:53 am 01:53 Cloudy 27 -2.8 19 -7.2 72 72 Calm 30.21 1023 10 16 0.00 0.00
2:53 am 02:53 Cloudy 28 -2.2 20 -6.7 72 72 Calm 30.20 1023 10 16 0.00 0.00
3:53 am 03:53 Cloudy 29 -1.7 20 -6.7 69 69 Calm 30.22 1024 10 16 0.00 0.00
4:53 am 04:53 Cloudy 29 -1.7 21 -6.1 72 72 Calm 30.25 1024 10 16 0.00 0.00
5:53 am 05:53 Cloudy 29 -1.7 21 -6.1 72 72 Calm 30.28 1025 10 16 0.00 0.00
6:01 am 06:01 Cloudy 29 -1.7 22 -5.6 75 75 Calm 30.33 1027 10 16 0.00 0.00
6:45 am 06:45 Cloudy 29 -1.7 22 -5.6 75 75 Calm 30.33 1027 10 16 0.00 0.00
6:53 am 06:53 Cloudy 29 -1.7 22 -5.6 75 75 Calm 30.31 1026 10 16 0.00 0.00
7:53 am 07:53 Cloudy 29 -1.7 21 -6.1 72 72 NW 3 6 30.34 1027 10 16 0.00 0.00
8:53 am 08:53 Cloudy 30 -1.1 21 -6.1 69 69 N 5 7 30.36 1028 10 16 0.00 0.00
9:53 am 09:53 Cloudy 30 -1.1 21 -6.1 69 69 N 5 7 30.40 1029 10 16 0.00 0.00
10:53 am 10:53 Cloudy 31 -0.6 21 -6.1 67 67 N 3 6 30.41 1030 10 16 0.00 0.00
11:53 am 11:53 Cloudy 33 0.6 21 -6.1 61 61 NNE 3 6 30.40 1030 10 16 0.00 0.00
12:53 pm 12:53 Cloudy 35 1.7 22 -5.6 59 59 ENE 7 11 30.38 1029 10 16 0.00 0.00
1:41 pm 13:41 Cloudy 36 2.2 22 -5.6 57 57 VRB 7 11 30.39 1029 10 16 0.00 0.00
1:53 pm 13:53 Cloudy 35 1.7 21 -6.1 57 57 ENE 7 11 30.36 1028 10 16 0.00 0.00
2:17 pm 14:17 Cloudy 36 2.2 21 -6.1 55 55 VRB 3 6 30.39 1029 10 16 0.00 0.00
2:53 pm 14:53 Cloudy 36 2.2 22 -5.6 57 57 ENE 6 9 30.34 1028 10 16 0.00 0.00
3:53 pm 15:53 Cloudy 36 2.2 22 -5.6 57 57 E 6 9 30.33 1027 10 16 0.00 0.00
4:53 pm 16:53 Cloudy 36 2.2 22 -5.6 57 57 NE 3 6 30.35 1028 10 16 0.00 0.00
5:53 pm 17:53 Cloudy 35 1.7 22 -5.6 59 59 E 7 11 30.35 1028 10 16 0.00 0.00
6:53 pm 18:53 Cloudy 35 1.7 23 -5 61 61 ENE 12 19 30.33 1027 10 16 0.00 0.00
7:53 pm 19:53 Cloudy 34 1.1 22 -5.6 61 61 NNE 5 7 30.34 1027 10 16 0.00 0.00
8:10 pm 20:10 Cloudy 34 1.1 23 -5 64 64 NE 7 11 30.36 1028 10 16 0.00 0.00
8:53 pm 20:53 Cloudy 34 1.1 23 -5 64 64 ENE 10 17 30.28 1025 10 16 0.00 0.00
9:53 pm 21:53 Cloudy 34 1.1 24 -4.4 67 67 ENE 12 19 30.26 1025 10 16 0.00 0.00
10:16 pm 22:16 Cloudy 34 1.1 24 -4.4 67 67 E 9 15 30.27 1025 10 16 0.00 0.00
10:53 pm 22:53 Cloudy 34 1.1 24 -4.4 67 67 E 9 15 30.20 1023 10 16 0.00 0.00
11:53 pm 23:53 Cloudy with Rain 34 1.1 26 -3.3 73 73 ENE 6 9 30.17 1022 5 8 0.02 0.51

Powered by AerisWeather